Fort Payne, AL

11:32 PM CDT on September 20, 2017 (GMT -0500)
Fort Payne

Weather History for K4A9 - March, 2013

Change the Weather History Date:

Saturday, March 30, 2013

  Actual Average (KRMG) Record (KRMG)
Temperature  
Mean Temperature 55 °F -  
Max Temperature 68 °F 68 °F 82 °F (1998)
Min Temperature 42 °F 43 °F 30 °F (2009)
Degree Days  
Heating Degree Days 10    
Growing Degree Days 5 (Base 50)    
Moisture  
Dew Point 43 °F    
Average Humidity 71    
Maximum Humidity 94    
Minimum Humidity 37    
Precipitation  
Precipitation 0.05 in - - ()
Sea Level Pressure  
Sea Level Pressure 30.11 in    
Wind  
Wind Speed 3 mph (East)    
Max Wind Speed 20 mph    
Max Gust Speed 23 mph    
Visibility 8 miles    
Events Rain    
Averages and records for this station are not official NWS values.
T = Trace of Precipitation, MM = Missing Value Source: NWS Daily Summary

Daily Weather History Graph

Daily Weather History Graph

Search for Another Location

Airport or City:

Trip Planner

Search our weather history database for the weather conditions in past years. The results will help you decide how hot, cold, wet, or windy it might be!

Date:

Astronomy

Mar. 30, 2013 Rise Set
Actual Time 6:32 AM CDT 7:02 PM CDT
Civil Twilight 6:07 AM CDT 7:27 PM CDT
Nautical Twilight 5:37 AM CDT 7:57 PM CDT
Astronomical Twilight 5:07 AM CDT 8:27 PM CDT
Moon 10:58 PM CDT (3/30) 8:36 AM CDT (3/30)
Length of Visible Light 13h 20m
Length of Day
12h 30m
Waning Gibbous, 86% of the Moon is Illuminated
Mar 30
Waning Gibbous
Apr 2
Last Quarter
Apr 10
New
Apr 18
First Quarter
Apr 25
Full

Hourly Weather History & Observations

Time (CDT) Temp. Windchill Dew Point Humidity Pressure Visibility Wind Dir Wind Speed Gust Speed Precip Events Conditions
12:15 AM 46.4 °F 43.5 °F 37.4 °F 71% 30.18 in 10.0 mi NE 5.8 mph - N/A   Overcast
12:35 AM 46.4 °F 44.3 °F 35.6 °F 66% 30.18 in 10.0 mi NE 4.6 mph - N/A   Overcast
12:55 AM 46.4 °F 44.3 °F 35.6 °F 66% 30.18 in 10.0 mi NNE 4.6 mph - N/A   Overcast
1:15 AM 46.4 °F 45.2 °F 35.6 °F 66% 30.18 in 10.0 mi NE 3.5 mph - N/A   Overcast
1:35 AM 46.4 °F 45.2 °F 35.6 °F 66% 30.17 in 10.0 mi NE 3.5 mph - N/A   Mostly Cloudy
1:55 AM 46.4 °F - 35.6 °F 66% 30.17 in 10.0 mi Calm Calm - N/A   Overcast
2:15 AM 46.4 °F 44.3 °F 37.4 °F 71% 30.16 in 10.0 mi NE 4.6 mph - N/A   Mostly Cloudy
2:35 AM 46.4 °F - 37.4 °F 71% 30.17 in 10.0 mi Calm Calm - N/A   Overcast
2:55 AM 46.4 °F 45.2 °F 35.6 °F 66% 30.16 in 10.0 mi NE 3.5 mph - N/A   Overcast
3:15 AM 44.6 °F 43.1 °F 37.4 °F 76% 30.16 in 10.0 mi ENE 3.5 mph - N/A   Mostly Cloudy
3:35 AM 44.6 °F - 35.6 °F 71% 30.16 in 10.0 mi Calm Calm - N/A   Mostly Cloudy
3:55 AM 44.6 °F 42.2 °F 37.4 °F 76% 30.16 in 10.0 mi NE 4.6 mph - N/A   Overcast
4:15 AM 44.6 °F - 37.4 °F 76% 30.16 in 10.0 mi Calm Calm - N/A   Overcast
4:35 AM 44.6 °F - 37.4 °F 76% 30.15 in 10.0 mi Calm Calm - N/A   Overcast
4:55 AM 44.6 °F 43.1 °F 37.4 °F 76% 30.16 in 10.0 mi NNE 3.5 mph - N/A   Overcast
5:15 AM 44.6 °F - 37.4 °F 76% 30.16 in 10.0 mi Calm Calm - N/A   Overcast
5:35 AM 44.6 °F - 37.4 °F 76% 30.16 in 10.0 mi Calm Calm - N/A   Overcast
5:55 AM 44.6 °F - 37.4 °F 76% 30.16 in 10.0 mi Calm Calm - N/A   Overcast
6:15 AM 42.8 °F - 37.4 °F 81% 30.16 in 10.0 mi Calm Calm - N/A   Mostly Cloudy
6:35 AM 42.8 °F - 37.4 °F 81% 30.17 in 10.0 mi Calm Calm - N/A   Overcast
6:55 AM 44.6 °F - 37.4 °F 76% 30.17 in 10.0 mi Calm Calm - N/A   Mostly Cloudy
7:15 AM 44.6 °F 43.1 °F 37.4 °F 76% 30.17 in 10.0 mi NNE 3.5 mph - N/A   Mostly Cloudy
7:35 AM 44.6 °F 43.1 °F 37.4 °F 76% 30.17 in 10.0 mi NE 3.5 mph - N/A   Mostly Cloudy
7:55 AM 44.6 °F 43.1 °F 37.4 °F 76% 30.17 in 10.0 mi NE 3.5 mph - N/A   Scattered Clouds
8:15 AM 44.6 °F 42.2 °F 39.2 °F 81% 30.18 in 10.0 mi NNE 4.6 mph - N/A   Scattered Clouds
8:35 AM 46.4 °F 44.3 °F 39.2 °F 76% 30.18 in 10.0 mi NNE 4.6 mph - N/A   Clear
8:55 AM 50.0 °F - 39.2 °F 66% 30.18 in 10.0 mi NNE 3.5 mph - N/A   Clear
9:15 AM 51.8 °F - 37.4 °F 58% 30.17 in 10.0 mi Calm Calm - N/A   Clear
9:35 AM 55.4 °F - 35.6 °F 47% 30.17 in 10.0 mi SE 4.6 mph - N/A   Clear
9:55 AM 59.0 °F - 33.8 °F 39% 30.17 in 10.0 mi Calm Calm - N/A   Mostly Cloudy
10:15 AM 59.0 °F - 33.8 °F 39% 30.16 in 10.0 mi Calm Calm - N/A   Mostly Cloudy
10:35 AM 59.0 °F - 35.6 °F 42% 30.16 in 10.0 mi Calm Calm - N/A   Scattered Clouds
10:55 AM 59.0 °F - 35.6 °F 42% 30.15 in 10.0 mi Calm Calm - N/A   Mostly Cloudy
11:15 AM 60.8 °F - 37.4 °F 42% 30.15 in 10.0 mi Calm Calm - N/A   Mostly Cloudy
11:35 AM 62.6 °F - 37.4 °F 39% 30.14 in 10.0 mi Calm Calm - N/A   Scattered Clouds
11:55 AM 62.6 °F - 37.4 °F 39% 30.13 in 10.0 mi East 3.5 mph - N/A   Clear
12:15 PM 64.4 °F - 39.2 °F 40% 30.12 in 10.0 mi WNW 4.6 mph - N/A   Clear
12:35 PM 64.4 °F - 39.2 °F 40% 30.11 in 10.0 mi SW 9.2 mph - N/A   Clear
12:55 PM 64.4 °F - 41.0 °F 42% 30.10 in 10.0 mi West 5.8 mph - N/A   Clear
1:15 PM 66.2 °F - 42.8 °F 43% 30.09 in 10.0 mi SSW 5.8 mph - N/A   Clear
1:35 PM 68.0 °F - 41.0 °F 37% 30.08 in 10.0 mi SSW 5.8 mph - N/A   Scattered Clouds
1:55 PM 68.0 °F - 42.8 °F 40% 30.07 in 10.0 mi SSW 4.6 mph - N/A   Scattered Clouds
2:15 PM 68.0 °F - 42.8 °F 40% 30.06 in 10.0 mi Calm Calm - N/A   Scattered Clouds
2:35 PM 68.0 °F - 42.8 °F 40% 30.06 in 10.0 mi SW 6.9 mph - N/A   Scattered Clouds
2:55 PM 68.0 °F - 42.8 °F 40% 30.05 in 10.0 mi SW 8.1 mph - N/A   Scattered Clouds
3:15 PM 68.0 °F - 42.8 °F 40% 30.04 in 10.0 mi WSW 10.4 mph - N/A   Mostly Cloudy
3:35 PM 64.4 °F - 44.6 °F 49% 30.06 in 7.0 mi WSW 19.6 mph 23.0 mph N/A Rain Heavy Rain
3:55 PM 59.0 °F - 51.8 °F 77% 30.08 in 4.0 mi SSW 5.8 mph 10.4 mph N/A Rain Rain
4:15 PM 57.2 °F - 53.6 °F 88% 30.08 in 4.0 mi SW 3.5 mph - N/A Rain Rain
4:35 PM 57.2 °F - 53.6 °F 88% 30.08 in 4.0 mi SW 8.1 mph - N/A Rain Rain
4:55 PM 55.4 °F - 53.6 °F 94% 30.08 in 4.0 mi SW 6.9 mph - 0.01 in Rain Rain
5:15 PM 55.4 °F - 53.6 °F 94% 30.08 in 3.0 mi SW 5.8 mph - N/A Rain Heavy Rain
5:35 PM 55.4 °F - 51.8 °F 88% 30.07 in 4.0 mi Calm Calm - N/A Rain Rain
5:55 PM 55.4 °F - 51.8 °F 88% 30.06 in 4.0 mi Calm Calm - 0.01 in Rain Rain
6:15 PM 55.4 °F - 51.8 °F 88% 30.06 in 4.0 mi Calm Calm - N/A Rain Rain
6:35 PM 55.4 °F - 51.8 °F 88% 30.04 in 5.0 mi ESE 3.5 mph - N/A Rain Light Rain
6:55 PM 55.4 °F - 51.8 °F 88% 30.04 in 7.0 mi Calm Calm - N/A Rain Light Rain
7:15 PM 53.6 °F - 51.8 °F 94% 30.04 in 4.0 mi Calm Calm - 0.02 in Rain Rain
7:35 PM 53.6 °F - 51.8 °F 94% 30.04 in 4.0 mi Calm Calm - 0.02 in Rain Light Rain
7:55 PM 53.6 °F - 51.8 °F 94% 30.02 in 4.0 mi Calm Calm - 0.02 in Rain Light Rain
8:15 PM 53.6 °F - 51.8 °F 94% 30.01 in 7.0 mi SE 3.5 mph - N/A Rain Rain
8:35 PM 53.6 °F - 51.8 °F 94% 30.01 in 7.0 mi Calm Calm - N/A Rain Rain
8:55 PM 53.6 °F - 51.8 °F 94% 30.02 in 4.0 mi Calm Calm - N/A Rain Rain
9:15 PM 53.6 °F - 51.8 °F 94% 30.02 in 2.5 mi Calm Calm - N/A Rain Light Rain
9:35 PM 53.6 °F - 51.8 °F 94% 30.02 in 3.0 mi Calm Calm - N/A Rain Rain
9:55 PM 53.6 °F - 51.8 °F 94% 30.02 in 2.5 mi Calm Calm - N/A Rain Rain
10:15 PM 53.6 °F - 51.8 °F 94% 30.02 in 4.0 mi Calm Calm - N/A Rain Rain
10:35 PM 53.6 °F - 51.8 °F 94% 30.01 in 4.0 mi Calm Calm - N/A Rain Rain
10:55 PM 53.6 °F - 51.8 °F 94% 30.00 in 7.0 mi Calm Calm - N/A   Drizzle
11:15 PM 53.6 °F - 51.8 °F 94% 30.00 in 7.0 mi WSW 3.5 mph - N/A   Drizzle
11:35 PM 53.6 °F - 51.8 °F 94% 29.99 in 7.0 mi WSW 4.6 mph - 0.01 in Rain Light Rain
11:55 PM 53.6 °F - 51.8 °F 94% 29.99 in 5.0 mi WSW 3.5 mph - 0.01 in Rain Rain